Overview Statistics Trail Chart Weather Telemetry Raw packets
 

This is the latest recevied weather packets stored in our database for station/object NB9X. If no packets are shown the sender has not sent any weather packets the latest 10 day(s).

<< 73 74 75 76 77 78 79 >>
Time Temp. Humidity Pressure Rain* Wind** Luminosity Snow
1788127170 23.89° C 100% 1015.2 hPa 18.54 mm - - -
1788126870 23.89° C 100% 1015.3 hPa 17.27 mm - - -
1788126570 23.89° C 100% 1015.2 hPa 14.48 mm - - -
1788126270 23.89° C 100% 1015.5 hPa 12.19 mm - - -
1788125970 23.89° C 100% 1015.6 hPa 8.13 mm - - -
1788125677 25° C 100% 1015.5 hPa 2.54 mm - - -
1788125370 26.11° C 100% 1015.4 hPa 0.51 mm - - -
1788125070 27.78° C 100% 1015.2 hPa 0 mm - - -
1788124770 29.44° C 100% 1015.2 hPa 0 mm - - -
1788124470 32.78° C 100% 1015 hPa 0 mm - - -
1788124170 32.22° C 100% 1014.4 hPa 0 mm - - -
1788123870 34.44° C 100% 1014.4 hPa 0 mm - - -
1788123570 34.44° C 100% 1014.3 hPa 0 mm - - -
1788123270 33.89° C 100% 1014.3 hPa 0 mm - - -
1788122970 33.89° C 100% 1014.4 hPa 0 mm - - -
1788122670 33.33° C 100% 1014.5 hPa 0 mm - - -
1788122370 34.44° C 100% 1014.4 hPa 0 mm - - -
1788122070 34.44° C 100% 1014.4 hPa 0 mm - - -
1788121770 33.89° C 100% 1014.2 hPa 0 mm - - -
1788121470 34.44° C 100% 1014.3 hPa 0 mm - - -
1788121170 33.89° C 100% 1014.1 hPa 0 mm - - -
1788120870 33.89° C 100% 1014.1 hPa 0 mm - - -
1788120570 33.33° C 100% 1014.2 hPa 0 mm - - -
1788120270 34.44° C 100% 1014.3 hPa 0 mm - - -
1788119970 35° C 100% 1014.3 hPa 0 mm - - -

* Rain latest hour (hover to see other rain measurements)
** Current wind speed in m/s (hover to see current wind gust speed)